Weather History for Marshfield, MA

Change the Weather History Date:

Tuesday, February 18, 2014

  Actual Average (KPYM) Record (KPYM)
Temperature  
Mean Temperature 24 °F -  
Max Temperature 35 °F 37 °F 59 °F (1981)
Min Temperature 12 °F 18 °F -6 °F (1979)
Degree Days  
Heating Degree Days 42    
Moisture  
Dew Point 22 °F    
Average Humidity 83    
Maximum Humidity 100    
Minimum Humidity 58    
Precipitation  
Precipitation 0.12 in - - ()
Sea Level Pressure  
Sea Level Pressure 30.14 in    
Wind  
Wind Speed 6 mph (SSW)    
Max Wind Speed 16 mph    
Max Gust Speed 23 mph    
Visibility 8 miles    
Events Rain , Snow    
Averages and records for this station are not official NWS values.
T = Trace of Precipitation, MM = Missing Value Source: NWS Daily Summary

Daily Weather History Graph

Daily Weather History Graph

Search for Another Location

Airport:

Trip Planner

Search our weather history database for the weather conditions in past years. The results will help you decide how hot, cold, wet, or windy it might be!

Date:

Astronomy

Feb. 18, 2014 Rise Set
Actual Time 6:34 AM EST 5:19 PM EST
Civil Twilight 6:06 AM EST 5:47 PM EST
Nautical Twilight 5:33 AM EST 6:20 PM EST
Astronomical Twilight 5:01 AM EST 6:52 PM EST
Moon 9:14 PM EST (2/18) 8:00 AM EST (2/18)
Length of Visible Light 11h 41m
Length of Day
10h 44m
Waning Gibbous, 87% of the Moon is Illuminated
Feb 18
Waning Gibbous
Feb 22
Last Quarter
Mar 1
New
Mar 8
First Quarter
Mar 16
Full

Hourly Weather History & Observations

Time (EST) Temp. Windchill Dew Point Humidity Pressure Visibility Wind Dir Wind Speed Gust Speed Precip Events Conditions
12:15 AM 14.0 °F 6.5 °F 5.0 °F 67% 30.39 in 10.0 mi West 4.6 mph - N/A   Clear
12:35 AM 15.8 °F 7.2 °F 3.2 °F 58% 30.38 in 10.0 mi West 5.8 mph - N/A   Clear
12:55 AM 14.0 °F 8.2 °F 5.0 °F 67% 30.37 in 10.0 mi WSW 3.5 mph - N/A   Clear
1:15 AM 14.0 °F 8.2 °F 5.0 °F 67% 30.36 in 10.0 mi West 3.5 mph - N/A   Clear
1:35 AM 12.2 °F - 5.0 °F 73% 30.36 in 10.0 mi Calm Calm - N/A   Clear
1:55 AM 12.2 °F 2.9 °F 5.0 °F 73% 30.38 in 10.0 mi West 5.8 mph - N/A   Clear
2:15 AM 12.2 °F 6.1 °F 5.0 °F 73% 30.37 in 10.0 mi West 3.5 mph - N/A   Clear
2:35 AM 12.2 °F - 5.0 °F 73% 30.36 in 10.0 mi Calm Calm - N/A   Clear
2:55 AM 12.2 °F - 5.0 °F 73% 30.35 in 10.0 mi Calm Calm - N/A   Clear
3:15 AM 12.2 °F 6.1 °F 6.8 °F 79% 30.35 in 10.0 mi West 3.5 mph - N/A   Clear
3:35 AM 12.2 °F 6.1 °F 5.0 °F 73% 30.35 in 10.0 mi WSW 3.5 mph - N/A   Clear
3:55 AM 12.2 °F 4.3 °F 6.8 °F 79% 30.36 in 10.0 mi WSW 4.6 mph - N/A   Clear
4:15 AM 12.2 °F 6.1 °F 6.8 °F 79% 30.36 in 10.0 mi West 3.5 mph - N/A   Clear
4:35 AM 14.0 °F 8.2 °F 6.8 °F 73% 30.36 in 10.0 mi West 3.5 mph - N/A   Clear
4:55 AM 14.0 °F - 6.8 °F 73% 30.35 in 10.0 mi Calm Calm - N/A   Clear
5:15 AM 14.0 °F - 8.6 °F 79% 30.31 in 9.0 mi Calm Calm - N/A   Clear
5:35 AM 14.0 °F 5.1 °F 8.6 °F 79% 30.34 in 10.0 mi WSW 5.8 mph - N/A   Clear
5:55 AM 15.8 °F 8.6 °F 8.6 °F 73% 30.34 in 10.0 mi WSW 4.6 mph - N/A   Clear
6:15 AM 17.6 °F - 8.6 °F 68% 30.34 in 10.0 mi Calm Calm - N/A   Clear
6:35 AM 17.6 °F - 10.4 °F 73% 30.34 in 10.0 mi Calm Calm - N/A   Clear
6:55 AM 17.6 °F - 10.4 °F 73% 30.33 in 10.0 mi Calm Calm - N/A   Clear
7:15 AM 17.6 °F - 10.4 °F 73% 30.34 in 10.0 mi Calm Calm - N/A   Clear
7:35 AM 19.4 °F - 12.2 °F 74% 30.32 in 10.0 mi Calm Calm - N/A   Clear
7:55 AM 19.4 °F - 12.2 °F 74% 30.31 in 10.0 mi Calm Calm - N/A   Clear
8:15 AM 21.2 °F - 14.0 °F 74% 30.31 in 10.0 mi Calm Calm - N/A   Partly Cloudy
8:35 AM 23.0 °F - 15.8 °F 74% 30.29 in 10.0 mi Calm Calm - N/A   Partly Cloudy
8:55 AM 28.4 °F 21.2 °F 19.4 °F 69% 30.28 in 10.0 mi SE 6.9 mph - N/A   Scattered Clouds
9:15 AM 32.0 °F 23.0 °F 21.2 °F 64% 30.27 in 10.0 mi ESE 11.5 mph 17.3 mph N/A   Clear
9:35 AM 32.0 °F 23.6 °F 23.0 °F 69% 30.27 in 10.0 mi SE 10.4 mph - N/A   Partly Cloudy
9:55 AM 32.0 °F 22.5 °F 23.0 °F 69% 30.25 in 10.0 mi ESE 12.7 mph 19.6 mph N/A   Partly Cloudy
10:15 AM 32.0 °F 23.6 °F 24.8 °F 75% 30.23 in 10.0 mi SE 10.4 mph 19.6 mph N/A   Partly Cloudy
10:35 AM 32.0 °F 21.6 °F 24.8 °F 75% 30.22 in 10.0 mi ESE 15.0 mph - N/A   Scattered Clouds
10:55 AM 32.0 °F 22.1 °F 24.8 °F 75% 30.19 in 10.0 mi ESE 13.8 mph 19.6 mph N/A   Mostly Cloudy
11:15 AM 33.8 °F 23.5 °F 26.6 °F 75% 30.17 in 10.0 mi ESE 16.1 mph 21.9 mph N/A   Partly Cloudy
11:35 AM 33.8 °F 24.3 °F 26.6 °F 75% 30.18 in 10.0 mi ESE 13.8 mph 20.7 mph N/A   Partly Cloudy
11:55 AM 33.8 °F 24.8 °F 26.6 °F 75% 30.17 in 10.0 mi ESE 12.7 mph 19.6 mph N/A   Drizzle
12:15 PM 33.8 °F 23.9 °F 26.6 °F 75% 30.14 in 10.0 mi ESE 15.0 mph 20.7 mph N/A   Drizzle
12:35 PM 33.8 °F 25.3 °F 28.4 °F 81% 30.13 in 7.0 mi SE 11.5 mph - N/A Rain Light Rain
12:55 PM 33.8 °F 24.8 °F 32.0 °F 93% 30.12 in 0.5 mi SE 12.7 mph 20.7 mph N/A Snow Light Snow
1:15 PM 32.0 °F 22.1 °F 32.0 °F 100% 30.09 in 0.5 mi ESE 13.8 mph 17.3 mph N/A Snow Light Snow
1:35 PM 33.8 °F 24.3 °F 32.0 °F 93% 30.05 in 0.2 mi ESE 13.8 mph 21.9 mph N/A Snow Light Snow
1:55 PM 33.8 °F 23.9 °F 32.0 °F 93% 30.03 in 0.5 mi ESE 15.0 mph 20.7 mph 0.02 in Snow Light Snow
2:15 PM 33.8 °F 24.8 °F 32.0 °F 93% 30.00 in 0.2 mi East 12.7 mph 19.6 mph 0.01 in Snow Light Snow
2:35 PM 33.8 °F 24.3 °F 33.8 °F 100% 29.98 in 0.5 mi ESE 13.8 mph 19.6 mph 0.03 in Snow Light Snow
2:55 PM 33.8 °F 24.8 °F 33.8 °F 100% 29.98 in 1.0 mi ESE 12.7 mph 21.9 mph 0.06 in Snow Light Snow
3:15 PM 33.8 °F 24.8 °F 33.8 °F 100% 29.96 in 0.5 mi ESE 12.7 mph 20.7 mph 0.02 in Snow Light Snow
3:35 PM 33.8 °F 23.9 °F 33.8 °F 100% 29.95 in 1.0 mi ESE 15.0 mph 20.7 mph 0.03 in Snow Light Snow
3:55 PM 33.8 °F 25.3 °F 33.8 °F 100% 29.92 in 1.8 mi SE 11.5 mph 20.7 mph 0.04 in   Overcast
4:15 PM 33.8 °F 25.8 °F 33.8 °F 100% 29.90 in 5.0 mi SE 10.4 mph 16.1 mph N/A   Drizzle
4:35 PM 35.6 °F 27.1 °F 33.8 °F 93% 29.88 in 7.0 mi ESE 12.7 mph - N/A   Drizzle
4:55 PM 35.6 °F 26.2 °F 33.8 °F 93% 29.87 in 8.0 mi ESE 15.0 mph 18.4 mph N/A   Drizzle
5:15 PM 35.6 °F 26.2 °F 33.8 °F 93% 29.86 in 3.0 mi ESE 15.0 mph 20.7 mph N/A   Drizzle
5:35 PM 35.6 °F 31.7 °F 35.6 °F 100% 29.86 in 8.0 mi SSE 4.6 mph - N/A   Drizzle
5:55 PM 35.6 °F 31.7 °F 35.6 °F 100% 29.85 in 10.0 mi SE 4.6 mph - N/A   Drizzle
6:15 PM 35.6 °F 31.7 °F 33.8 °F 93% 29.85 in 3.0 mi West 4.6 mph - N/A   Drizzle
6:35 PM 35.6 °F 28.6 °F 33.8 °F 93% 29.87 in 2.0 mi West 9.2 mph - N/A   Drizzle
6:55 PM 33.8 °F 27.7 °F 33.8 °F 100% 29.87 in 10.0 mi West 6.9 mph - N/A   Drizzle
7:15 PM 33.8 °F 27.0 °F 32.0 °F 93% 29.88 in 10.0 mi West 8.1 mph - N/A   Drizzle
7:35 PM 32.0 °F 23.0 °F 32.0 °F 100% 29.89 in 10.0 mi West 11.5 mph 17.3 mph N/A   Drizzle
7:55 PM 32.0 °F 22.5 °F 32.0 °F 100% 29.90 in 10.0 mi WSW 12.7 mph 23.0 mph N/A   Drizzle
8:15 PM 32.0 °F 22.5 °F 30.2 °F 93% 29.92 in 10.0 mi WSW 12.7 mph 20.7 mph N/A   Drizzle
8:35 PM 32.0 °F 23.0 °F 30.2 °F 93% 29.92 in 10.0 mi West 11.5 mph 19.6 mph N/A   Drizzle
8:55 PM 32.0 °F 23.0 °F 30.2 °F 93% 29.93 in 10.0 mi West 11.5 mph 20.7 mph N/A   Drizzle
9:15 PM 30.2 °F 20.8 °F 30.2 °F 100% 29.95 in 10.0 mi West 11.5 mph 18.4 mph N/A   Light Freezing Rain
9:35 PM 30.2 °F 21.3 °F 30.2 °F 100% 29.96 in 10.0 mi WSW 10.4 mph 16.1 mph N/A   Light Freezing Rain
9:55 PM 30.2 °F 19.8 °F 28.4 °F 93% 29.97 in 10.0 mi West 13.8 mph 20.7 mph N/A   Light Freezing Rain
10:35 PM 30.2 °F 19.8 °F 28.4 °F 93% 29.99 in 10.0 mi West 13.8 mph 21.9 mph N/A   Light Freezing Rain
10:55 PM 30.2 °F 21.3 °F 26.6 °F 86% 30.01 in 10.0 mi West 10.4 mph 23.0 mph N/A   Light Freezing Rain
11:15 PM 30.2 °F 20.2 °F 26.6 °F 86% 30.02 in 10.0 mi West 12.7 mph 20.7 mph N/A   Light Freezing Rain
11:35 PM 30.2 °F 21.9 °F 26.6 °F 86% 30.01 in 10.0 mi WNW 9.2 mph - N/A   Light Freezing Rain
11:55 PM 30.2 °F 22.6 °F 26.6 °F 86% 30.02 in 10.0 mi West 8.1 mph - N/A   Light Freezing Rain